Location: Ajisawe
(8.4333°N, 4.3833°E)
Time: 22:28:16
(UTC+00:00)

Vanguard 1 Rocket - Pass Details

Date: 22 April 2021
Orbit: 652 x 4224 km, 34.3° (Epoch: 10 May)

Event Time Altitude Azimuth Distance (km) Brightness Sun altitude
Exits shadow 02:26:19 10° 189° (S) 7,250 11.7 -44.0°
Maximum altitude 02:31:03 11° 178° (S) 7,299 11.8 -43.0°
Drops below altitude 10° 02:36:55 10° 165° (SSE) 7,427 11.9 -41.7°
Sets 02:52:05 0° 133° (SE) 8,050 12.5 -38.2°
